Theta_e
312 312 313 313 311 313 315 315 316 314 314 313 312 312 311 308 306 305 305 305 304 302 301 302 304 306 308 310 312 314 315 314 315 310 309 308 305 307 308 309 308 309 309 309
314 314 314 313 313 314 314 314 315 314 313 312 312 312 311 310 309 308 307 307 304 300 299 301 304 305 306 309 311 311 311 310 308 307 306 304 303 302 302 302 303 304 304 304
315 315 315 314 315 316 315 315 315 316 314 311 312 313 312 311 310 308 308 307 305 301 300 299 303 304 306 308 310 310 309 306 306 306 305 300 298 296 296 296 295 296 297 296
314 314 315 314 315 315 316 314 315 316 316 316 312 318 313 312 311 309 309 306 304 300 300 300 302 302 304 307 309 308 307 306 305 305 303 301 299 293 292 292 291 291 291 290
316 314 315 316 315 314 316 314 314 314 314 314 314 314 314 313 314 315 309 305 302 301 300 300 302 302 303 305 305 305 306 305 303 303 302 300 295 291 290 289 289 289 289 289
313 312 313 314 312 313 312 313 313 313 313 316 314 315 317 316 316 315 310 304 301 300 299 300 301 302 301 302 303 302 302 300 300 299 298 299 295 290 289 288 288 288 287 287
314 313 313 312 313 312 314 314 317 319 317 319 314 315 318 316 314 313 310 305 300 300 299 298 296 296 298 298 299 300 300 298 299 298 297 296 292 290 289 288 288 287 286 286
316 319 314 311 312 313 312 314 317 318 321 319 312 317 317 312 309 306 306 305 301 299 299 296 295 295 295 296 297 297 297 296 296 296 295 293 291 289 289 289 288 288 287 286
317 317 311 311 312 313 313 315 314 318 303 312 317 315 313 310 308 307 305 303 301 299 297 294 293 294 294 295 295 295 294 294 294 294 293 292 291 290 289 289 288 287 286 285
316 320 311 309 311 311 313 312 316 316 320 319 319 318 321 314 311 307 304 304 302 299 296 294 293 293 293 294 294 294 294 293 293 292 292 291 290 290 289 288 287 286 285 285
314 318 313 310 312 314 312 315 315 316 316 319 317 322 313 315 312 308 305 303 302 299 297 295 294 292 293 292 292 292 292 292 291 291 291 290 290 289 289 288 287 286 285 285
313 318 312 313 310 309 313 315 316 321 319 316 316 323 309 309 308 307 305 303 302 299 297 294 293 292 291 291 291 291 291 290 290 290 290 289 289 288 288 287 286 286 285 285
315 317 316 320 314 310 312 313 315 317 316 320 324 323 306 306 309 306 304 302 301 299 296 294 293 291 291 290 290 290 290 290 290 289 289 289 288 288 287 287 286 285 286 286
316 317 316 323 320 314 312 311 313 316 322 320 322 322 314 309 308 307 303 301 300 299 297 295 293 292 291 290 289 289 289 289 289 289 289 288 288 287 287 286 286 286 286 286
318 321 319 318 317 316 311 312 313 315 317 321 321 319 318 315 311 306 304 300 300 300 297 296 294 292 291 289 289 288 289 289 289 289 288 288 287 287 287 286 286 286 286 286
315 319 317 320 316 316 318 317 314 313 314 315 317 317 313 312 311 306 304 302 301 301 299 297 295 293 291 290 289 288 288 288 289 288 288 288 287 287 286 286 286 286 286 285
314 314 316 320 314 316 318 317 317 317 315 315 316 315 313 312 310 306 304 303 302 301 300 298 296 294 292 291 289 288 288 288 288 288 288 288 287 287 286 286 286 285 285 285
308 312 316 320 316 321 316 305 314 316 316 316 315 314 307 309 309 308 304 304 303 301 300 299 297 296 293 292 290 289 288 288 288 287 287 287 287 287 286 286 286 285 285 285
308 309 315 317 318 314 313 305 311 313 315 313 315 315 313 308 305 304 301 301 303 301 300 299 298 297 294 292 290 289 288 288 287 287 287 287 287 287 286 286 285 285 285 284
305 308 313 316 317 319 306 301 301 306 313 303 310 312 312 302 307 313 301 298 298 298 299 298 298 297 295 292 291 289 288 287 287 287 287 287 287 287 287 286 286 285 285 285
304 306 311 314 316 312 306 300 301 313 308 293 296 299 300 305 306 302 298 300 297 297 299 299 298 297 297 294 290 289 288 287 288 288 288 288 288 287 287 286 286 286 285 284
305 308 307 309 311 313 296 299 311 304 295 294 299 300 298 298 295 294 294 293 293 293 294 295 294 293 293 292 290 289 288 288 288 288 288 287 287 286 286 286 286 285 284 283
309 306 307 308 309 298 295 297 294 293 294 293 297 297 295 293 293 291 290 290 290 289 289 291 290 289 290 292 292 290 290 289 289 288 287 287 287 286 286 285 285 284 283 282
301 296 304 305 302 297 294 294 296 295 292 291 292 295 292 292 290 289 287 288 287 287 287 289 289 288 288 290 291 292 291 290 289 288 287 286 286 285 284 284 284 283 282 280
297 296 298 299 296 293 295 294 297 297 291 289 289 291 292 290 288 288 286 286 286 286 287 289 288 287 286 287 288 288 288 288 287 287 285 284 284 283 283 282 281 280 280 279
292 296 301 303 298 299 300 295 294 296 292 289 289 290 289 289 288 287 285 285 286 285 286 286 286 286 284 285 285 285 285 285 285 284 283 282 281 280 279 278 277 276 275 275
Wind_Speed
3 4 8 15 10 6 3 4 5 5 4 6 9 10 10 11 8 9 11 12 12 12 13 18 14 12 13 13 15 17 21 24 29 30 31 29 29 27 26 24 23 22 21 19
2 9 14 7 9 9 8 8 12 7 6 6 8 14 10 7 11 16 19 17 14 8 9 16 17 16 17 18 17 20 22 26 23 23 26 28 31 26 27 24 22 21 20 19
9 7 9 9 6 6 6 8 6 9 1 4 5 10 8 10 14 9 16 13 12 17 14 10 18 19 18 20 21 24 24 18 21 25 26 30 30 30 28 26 27 25 24 25
9 8 5 6 7 10 9 6 6 7 2 6 5 10 6 6 10 10 18 14 15 15 11 13 18 22 23 24 27 23 22 24 24 25 29 31 34 31 29 31 30 28 26 26
8 7 10 11 8 9 6 2 4 3 3 3 4 7 5 9 13 20 15 13 14 17 16 16 20 25 25 26 27 26 24 23 23 24 29 31 33 35 33 32 31 29 26 25
5 0 5 7 3 7 7 5 6 5 2 6 8 9 7 11 17 12 5 9 13 14 14 15 24 29 27 27 27 26 26 25 27 28 28 33 40 40 37 34 33 30 27 25
0 6 3 4 5 3 5 6 2 3 1 9 5 10 21 6 5 9 10 13 12 15 16 16 15 21 26 27 28 28 28 26 27 28 30 35 39 39 37 35 34 31 28 25
7 5 15 8 11 8 8 9 6 7 5 5 3 8 6 9 7 7 8 16 16 16 15 16 20 23 26 29 29 29 30 29 30 30 31 34 35 35 33 32 31 29 28 25
7 6 3 1 4 12 5 10 6 2 2 2 6 9 10 5 10 3 7 12 16 17 16 17 20 24 27 31 32 32 32 31 32 33 35 34 34 33 33 30 28 28 26 25
4 4 3 1 4 3 6 5 3 1 3 6 5 8 12 6 11 8 8 12 13 14 14 15 19 24 27 33 36 35 35 36 35 36 36 36 34 32 31 30 29 27 25 23
4 3 1 2 6 12 3 4 4 5 5 5 3 9 6 8 9 9 12 14 16 17 16 15 18 24 27 30 33 36 37 37 38 38 37 35 33 31 30 29 28 26 24 21
8 3 4 10 4 3 2 10 9 7 6 5 2 18 2 1 5 8 10 13 13 15 15 14 19 23 24 28 33 36 37 38 38 38 36 35 33 32 31 29 27 25 24 20
8 2 1 4 1 3 7 7 18 11 3 13 6 15 2 4 5 2 7 8 10 14 13 13 16 20 24 27 30 33 37 37 37 36 36 34 34 34 32 31 29 26 24 20
7 6 8 12 4 5 7 9 14 16 9 7 23 26 12 3 3 3 5 7 10 15 16 14 14 21 26 28 30 32 35 39 38 37 37 37 37 35 33 31 29 27 23 21
10 10 13 21 8 1 5 7 18 20 29 14 24 20 30 14 9 10 8 9 11 14 17 18 17 15 25 27 29 31 35 41 41 40 39 39 36 34 32 31 29 26 24 22
4 6 9 22 15 13 16 14 18 21 25 21 26 30 6 9 8 7 12 16 16 16 18 18 17 20 26 31 32 32 34 39 41 39 39 38 37 35 34 32 30 27 25 23
9 6 6 15 8 11 10 33 20 21 21 24 23 35 19 17 15 9 10 15 17 17 17 18 18 20 26 29 31 33 33 36 39 36 38 39 38 37 35 33 31 30 28 25
0 8 7 7 7 11 10 3 21 22 26 27 26 29 9 14 17 15 10 16 18 18 17 16 16 21 25 27 29 27 29 34 35 35 36 38 39 37 35 34 33 32 30 29
14 6 4 4 6 5 7 5 8 9 16 16 21 26 26 13 2 9 9 9 15 16 16 22 28 25 28 31 32 34 34 36 35 35 37 38 38 37 37 36 38 35 32 30
2 8 7 4 5 7 4 4 1 5 9 8 14 21 16 6 5 18 8 7 9 10 18 19 27 30 31 31 37 36 35 35 36 36 36 36 37 38 40 40 38 36 34 32
4 3 12 12 7 5 5 3 2 4 6 2 1 3 7 7 6 5 7 5 5 8 20 25 26 29 32 34 37 32 29 32 37 35 34 35 38 38 37 37 37 34 32 32
9 9 5 5 4 8 6 2 8 3 3 2 4 2 5 3 1 3 4 5 6 7 11 18 21 22 28 34 33 27 30 30 31 33 32 32 32 34 35 33 32 31 31 30
5 5 5 8 5 1 5 5 2 3 2 2 3 1 4 3 1 2 4 6 6 9 13 18 21 21 22 27 30 27 26 25 24 25 26 26 26 28 29 29 29 28 28 29
3 1 3 2 4 4 5 3 2 2 1 2 2 1 3 3 4 3 3 5 5 9 13 19 23 20 18 18 19 20 21 20 22 22 22 22 23 24 24 24 25 26 27 27
3 7 5 4 5 4 7 7 4 2 2 1 1 1 2 5 3 4 4 5 6 11 15 22 22 21 19 17 15 13 17 19 21 21 21 21 21 21 20 20 19 20 21 20
4 6 5 5 5 3 4 7 7 6 6 5 4 3 2 4 6 4 4 6 11 14 17 16 15 20 19 17 16 15 17 18 20 20 20 19 18 16 15 14 13 10 8 8
Wind_Direction
214 132 201 206 194 195 218 222 241 259 233 160 226 240 236 216 224 219 222 217 201 192 168 166 167 172 164 164 160 164 163 159 151 145 139 133 125 127 124 125 126 125 125 123
111 227 224 178 201 212 238 249 264 297 197 179 253 251 250 212 222 216 213 218 197 161 164 165 165 171 172 167 166 163 164 157 146 150 148 139 134 129 125 125 123 124 125 122
185 212 209 193 214 205 217 213 234 231 199 263 309 271 235 244 225 218 227 220 191 177 165 164 169 176 174 167 167 158 148 152 160 159 150 137 131 125 124 121 117 117 121 118
234 230 151 162 208 190 232 215 219 242 261 255 148 284 226 230 251 223 231 200 182 174 167 163 166 175 176 170 160 160 163 166 166 163 155 148 145 134 130 126 122 121 121 119
229 179 210 222 212 181 223 137 182 212 224 331 276 299 261 214 247 249 233 205 182 176 165 167 169 173 179 168 169 169 168 169 170 171 163 155 142 136 135 129 125 123 120 118
212 139 151 203 76 169 144 76 41 42 60 266 192 210 244 227 236 249 204 190 175 165 165 164 164 170 169 173 170 165 165 163 162 166 166 160 151 146 142 138 133 130 126 121
109 210 183 149 105 44 133 111 292 319 299 249 205 219 251 286 208 229 212 190 170 166 164 161 158 163 169 171 174 173 170 162 170 171 169 164 156 152 147 145 140 136 131 127
177 275 179 191 185 177 191 168 166 217 212 281 355 243 254 230 258 271 235 186 172 169 168 163 162 164 169 175 177 176 173 164 168 170 167 164 158 155 151 150 146 142 139 136
184 260 62 106 153 160 197 211 176 22 114 8 221 277 283 239 259 264 183 165 177 173 167 164 160 167 173 177 178 176 171 167 169 166 163 164 164 160 158 154 150 145 143 139
240 250 34 246 88 30 153 163 119 95 205 241 270 265 242 236 251 231 209 182 177 173 167 166 167 172 178 180 179 177 174 171 168 166 166 165 165 165 161 157 153 151 147 144
185 167 263 109 198 175 145 196 198 144 166 194 281 259 211 231 244 215 203 191 179 177 174 172 173 176 178 179 177 177 176 170 168 168 167 166 167 167 163 160 158 156 153 151
204 146 188 206 243 249 305 196 177 184 214 233 150 266 175 138 273 211 204 190 182 178 173 173 173 170 172 175 177 178 178 175 173 171 170 170 169 168 166 164 164 163 159 157
178 212 345 309 31 354 219 210 207 220 89 220 181 256 344 28 14 235 193 181 172 170 169 171 170 175 177 178 178 179 181 180 178 175 173 172 172 173 172 171 169 169 167 165
100 168 211 226 165 132 186 203 200 203 213 184 227 265 233 354 308 271 217 185 175 176 176 177 181 183 182 182 179 180 181 184 181 180 179 178 180 179 178 175 175 175 176 176
173 218 218 248 232 129 200 207 212 210 227 208 249 235 258 252 245 230 202 171 179 189 187 188 188 184 181 182 184 181 183 187 186 185 187 188 184 184 181 180 180 182 183 186
179 222 205 249 240 245 252 247 218 221 236 239 254 258 138 226 241 206 192 186 193 197 197 194 188 185 187 187 186 183 185 187 189 188 192 192 189 187 188 186 186 188 190 194
180 178 195 245 185 213 241 237 235 228 227 225 232 244 248 251 235 224 203 193 195 203 200 193 192 190 191 192 187 186 186 187 191 189 194 196 193 192 193 192 191 194 197 202
210 210 220 242 149 218 238 249 214 216 233 231 242 257 221 235 239 241 207 195 199 194 188 189 188 188 184 186 190 187 186 190 191 196 198 199 198 197 197 198 200 201 203 208
200 176 224 238 233 324 277 207 159 170 249 227 232 247 252 253 349 269 216 201 199 187 182 179 178 179 177 181 182 185 188 194 194 197 202 202 201 200 203 205 208 207 208 212
134 224 211 182 222 217 255 254 194 105 276 228 211 235 250 126 218 257 181 163 152 155 158 161 165 168 174 178 187 184 188 190 195 199 201 205 206 210 212 212 213 214 216 222
160 201 220 230 238 270 241 203 239 115 242 290 181 241 158 199 244 299 139 107 121 149 162 170 168 171 187 188 182 184 186 194 202 204 208 210 213 216 218 218 218 221 222 227
170 172 190 208 232 249 163 97 165 199 325 267 314 295 192 171 348 48 82 105 125 130 137 162 154 165 178 182 177 177 190 201 203 205 207 211 215 217 220 221 224 225 227 229
202 183 176 196 210 229 205 184 187 167 172 347 304 300 167 147 177 117 115 129 129 122 125 140 140 145 160 175 187 187 197 201 200 200 206 211 214 218 221 221 223 224 227 230
238 102 195 145 203 238 260 282 277 2 95 8 339 286 157 139 144 110 104 120 104 111 126 138 141 143 151 171 187 202 193 191 192 194 199 203 206 208 213 218 224 226 226 229
179 152 160 270 251 298 250 218 195 182 163 126 19 61 161 151 162 153 139 125 121 131 138 148 149 152 155 165 169 178 182 182 182 187 188 192 198 203 205 214 222 228 236 243
185 171 173 220 203 169 234 209 196 174 170 182 169 97 96 154 155 126 108 130 144 144 149 144 143 145 147 153 152 160 173 181 181 179 183 189 193 196 204 210 212 222 238 242